PDT,Max TemperatureF,Mean TemperatureF,Min TemperatureF,Max Dew PointF,MeanDew PointF,Min DewpointF,Max Humidity, Mean Humidity, Min Humidity, Max Sea Level PressureIn, Mean Sea Level PressureIn, Min Sea Level PressureIn, Max VisibilityMiles, Mean VisibilityMiles, Min VisibilityMiles, Max Wind SpeedMPH, Mean Wind SpeedMPH, Max Gust SpeedMPH,PrecipitationIn, CloudCover, Events, WindDirDegrees
2013-4-1,67,58,48,49,48,46,96,72,48,30.15,30.11,30.06,10,10,10,12,2,15,0.00,5,,294
2013-4-2,72,58,43,49,45,41,96,70,44,30.19,30.15,30.07,10,10,10,8,1,,0.00,1,,290
2013-4-3,77,60,43,53,47,41,93,68,43,30.14,30.05,29.94,10,10,10,13,2,18,0.00,0,,156
2013-4-4,64,57,49,54,49,45,93,78,62,30.11,30.02,29.96,10,9,4,14,7,20,0.65,7,Rain,170
2013-4-5,64,58,51,52,49,46,96,78,60,30.17,30.13,30.09,10,10,8,13,1,17,0.01,8,Rain,209
2013-4-6,67,59,51,52,48,42,96,69,42,30.19,30.15,30.12,10,9,2,14,2,17,0.11,7,Rain,207
2013-4-7,62,57,51,52,48,39,96,75,53,30.15,30.04,29.81,10,7,2,13,4,16,0.09,7,Rain,285
2013-4-8,65,53,41,40,35,30,71,52,32,30.11,29.99,29.84,10,10,10,18,13,36,0.00,1,,323
2013-4-9,74,56,38,44,39,35,92,60,27,30.19,30.14,30.08,10,10,10,14,3,18,0.00,0,,340
2013-4-10,81,63,45,49,46,42,92,60,28,30.23,30.15,30.08,10,10,10,21,4,26,0.00,0,,316
2013-4-11,70,58,45,44,42,41,86,62,37,30.11,30.00,29.90,10,10,10,16,7,22,0.00,0,,351
2013-4-12,77,59,40,47,41,36,89,59,29,29.95,29.90,29.84,10,10,10,17,2,22,0.00,0,,346
2013-4-13,68,56,44,41,38,33,89,61,32,29.99,29.92,29.88,10,10,10,22,5,30,0.00,0,,337
2013-4-14,66,54,42,41,35,22,70,46,22,29.98,29.93,29.87,10,10,10,22,8,31,0.00,2,,350
2013-4-15,57,49,41,40,34,29,76,57,38,30.02,29.93,29.88,10,10,10,24,9,36,T,2,Rain,328
2013-4-16,65,49,33,38,33,30,89,60,30,30.23,30.11,30.04,10,10,10,18,4,25,0.00,0,,321
2013-4-17,70,53,35,39,34,24,92,57,22,30.32,30.26,30.21,10,10,10,14,3,20,0.00,0,,313
2013-4-18,79,59,39,45,40,36,92,58,23,30.31,30.25,30.17,10,10,10,14,2,17,0.00,0,,317
2013-4-19,80,62,44,47,44,41,92,60,27,30.26,30.19,30.13,10,10,10,23,4,32,0.00,0,,317
2013-4-20,80,62,43,44,41,38,89,59,28,30.17,30.09,30.00,10,10,10,16,2,22,0.00,0,,356
2013-4-21,87,66,44,49,44,39,89,55,21,30.08,30.01,29.94,10,10,10,13,2,17,0.00,0,,352
2013-4-22,91,69,47,51,42,23,86,48,9,30.01,29.93,29.85,10,10,10,16,1,21,0.00,0,,307
2013-4-23,86,64,41,43,36,23,89,51,12,29.96,29.90,29.84,10,10,10,13,1,17,0.00,0,,318
2013-4-24,88,65,42,47,36,21,82,46,9,29.92,29.85,29.78,10,10,10,15,1,20,0.00,0,,183
2013-4-25,78,63,47,50,46,43,93,65,36,30.11,30.03,29.93,10,10,10,10,4,14,0.00,4,,128
2013-4-26,86,65,43,51,45,40,92,62,31,30.19,30.15,30.12,10,10,10,12,1,15,0.00,0,,350
2013-4-27,90,66,41,45,40,27,83,47,10,30.22,30.14,30.06,10,10,10,13,2,17,0.00,0,,338
2013-4-28,91,68,45,47,43,39,86,53,19,30.07,29.99,29.90,10,10,10,13,2,16,0.00,0,,347
2013-4-29,85,68,50,48,46,44,86,56,25,29.95,29.89,29.83,10,10,10,17,4,23,0.00,0,,337
2013-4-30,82,65,47,44,37,26,82,50,17,29.93,29.87,29.84,10,10,10,13,5,17,0.00,0,,312